STARLINK-32546 (62134 NORAD) Tracking and Keplerian Element Data

This shows tracking and keplerian element data for the satellite.

Feedback or suggestion? Click here.




ElementValue
Catalog62134
NameSTARLINK-32546
Epoch Orbit1157
Epoch Day34.55600328
Epoch Year2025
RAAN232.2737
Inclination43.0007
Eccentricity0.0001964
Argument of Perigee266.6052
Mean Anonmoly93.458
Mean Motion15.40702068
Decay Rate1.172E-05
L11 62134U 24222W 25034.55600328 .00001172 00000+0 35329-4 0 9997
L22 62134 43.0007 232.2737 0001964 266.6052 93.4580 15.40702068 11571



Live tracking and technical data element details for STARLINK-32546 (NORAD 62134). STARLINK-32546 can be tracked NOW for your location showing map with azimuth and elevation plus other details from your city location.







IsCatalogInMostPopularTable: catalog: 62134, numindb: 14
Update: records affected: 1



GetName: 62134 STARLINK-32546

Hit Count: updated at: Sun, 18 May 2025 23:02:05 GMT